STARLINK-32153, 60330

Orbit data source: Space-Track

STARLINK-32153, 60330 is a payload satellite owned by SpaceX/Seattle (US) in LEO that was launched on Fri, 02 Aug 2024 UTC via an FALCON 9 launch vehicle from the Air Force Eastern Test Range (AFETR). Payload-class satellites include a variety of spacecraft equipped with specific instruments for various scientific and technological missions. These include communications satellites like Starlink; space stations such as the ISS; scientific satellites like the Hubble; Earth observation satellites from companies like Planet Labs, Umbra, and HawkEye 360; GPS; miniature CubeSats for education and research; and military/defense satellites.

Loading next visibility...
Identifier
60330, 2024-136B
Orbit
LEO
Country
Flag of USUS
Related business
Manufacturer
SpaceX/Seattle
Mission
Operational Commercial Communications
Bus & Motor
STARLINK V2M, Unknown motor
Mass
730 kg wet, ~700 kg dry
Launch date (UTC)
2024-08-02 (1 year ago)
Launch vehicle
FALCON 9
Launch site
Air Force Eastern Test Range (AFETR)
Object type
Payload
Rocket body
Debris
Shape & HBR
Box + 2 Pan, 14.5 m
Radar Cross Section
33.884 m², Large (>1 m²)

Expand to show TLE details & history
Last TLE update: 12 hours ago

TLE from 12 hours ago
0 STARLINK-32153
1 60330U 24136B   25242.73143554 -.00000009  00000-0  11825-4 0  9996
2 60330  53.1589 242.9596 0001413  92.3157 267.8006 15.30192612 60429
Epoch: 2025-08-30T17:33Z
TLE epoch observation values (Epoch: 2025-08-30T17:33:16.03Z)
Latitude
0.00001°
Longitude
0.48129°
Altitude
476.174 km
Speed
7.629 km/s
True Right ascension
16h 11m 50s
True Declination
0° 00' 00"
Sunlit
Object was in daylight at epoch
Visualization orbit readout
Latitude
Unknown
Longitude
Unknown
Altitude
Unknown
Speed
Unknown
Apparent Right ascension
Unknown
Apparent Declination
Unknown
Sunlit
N/A
Visualization observer readout
Local Sidereal Time
21:39:52
Azimuth
Unknown
Elevation
Unknown
Doppler factor
Unknown
Orbital elements
Apogee altitude
476.462 km
Perigee altitude
474.525 km
Semi-major axis
6,853.631 km
Eccentricity
0.00014
Inclination
53.1589°
RAAN
242.9596°
Arg. of periapsis
92.3157°
True anomaly
267.78442°
Mean anomaly
267.8006°
Eccentric anomaly
267.79251°
Mean motion
3.82527 °/min
Orbital period
94.11 mins
BSTAR
0.000011825
Loading maneuver chart data...
Computing Atmospheric mass density...
Loading historical data...
Loading historical data...
Loading historical data...
Loading historical data...
Loading historical data...
Loading historical data...
Loading historical data...

Documentation

Showing up to 5 results
|